OBJECT D, 100654

Orbit data source: Space-Track

You're viewing an uncataloged RSO

Recently launched and/or uncataloged RSOs may have evolving metadata. Metadata may include the following, but is not limited to: Owner, Manufacturer, Bus, Motor, and Mission.

OBJECT D, 100654 is a Chinese satellite in LEO that was launched on Thu, 10 Sep 2026 UTC launched from the Jiuquan Satellite Launch Center, China (JSC). Unknown objects in Earth's orbit typically refer to objects detected orbiting the Earth but have not yet been identified or cataloged. These objects could be anything from previously untracked satellites, spent rocket stages, debris from satellite collisions, or even natural meteoroids temporarily captured by Earth's gravity.

Loading next visibility...
Identifier
100654, 2026-205D
Orbit
LEO
Country
Flag of CNCN / PRC
Related business
None
Manufacturer
Unknown
Mission
Operational spacecraft
Bus & Motor
Unknown
Mass
Unknown
Launch date (UTC)
2026-09-10 (3 days ago)
Launch vehicle
Unknown
Launch site
Jiuquan Satellite Launch Center, China (JSC)
Object type
Unknown
Shape & HBR
Unknown
Radar Cross Section
RCS unknown

Expand to show TLE details & history
Last TLE update: 6 hours ago

TLE from 6 hours ago
0 OBJECT D
1 A0654U 26205D   26255.92864736  .00003260  00000-0  18071-3 0  9996
2 A0654  44.9949  94.5776 0008005 278.0032  81.9938 15.15908603   397
Epoch: 2026-09-12T22:17Z
TLE epoch observation values (Epoch: 2026-09-12T22:17:15.131Z)
Latitude
-0.00004°
Longitude
128.33391°
Altitude
517.455 km
Speed
7.607 km/s
True Right ascension
06h 18m 18s
True Declination
0° 00' 00"
Sunlit
Object was in daylight at epoch
Visualization orbit readout
Latitude
Unknown
Longitude
Unknown
Altitude
Unknown
Speed
Unknown
Apparent Right ascension
Unknown
Apparent Declination
Unknown
Sunlit
N/A
Visualization observer readout
Local Sidereal Time
20:48:33
Azimuth
Unknown
Elevation
Unknown
Doppler factor
Unknown
Orbital elements
Apogee altitude
525.345 km
Perigee altitude
514.302 km
Semi-major axis
6,897.96 km
Eccentricity
0.0008
Inclination
44.9949°
RAAN
94.5776°
Arg. of periapsis
278.0032°
True anomaly
82.08465°
Mean anomaly
81.9938°
Eccentric anomaly
82.03922°
Mean motion
3.78845 °/min
Orbital period
95.03 mins
BSTAR
0.00018071
Loading maneuver chart data...
Computing Atmospheric mass density...
Loading historical data...
Loading historical data...
Loading historical data...
Loading historical data...
Loading historical data...
Loading historical data...
Loading historical data...
Other satellites on launch #205 in the year 2026 (2026-09-10 UTC)

Documentation

Showing up to 5 results
|